星链-37157(STARLINK-37157)

导读

STARLINK-37157(NORAD编号68394)是美国SpaceX公司星链(Starlink)卫星互联网星座中的一颗低轨卫星。星链项目旨在通过近地轨道大规模部署卫星,为全球尤其是地面基础设施覆盖不到的偏远地区提供高速低延迟宽带互联网服务。该卫星运行在近地轨道,采用氩气离子推进系统实现轨道机动和脱轨,配备相控阵天线保障通信带宽,属于星链星座扩容部署的一部分,目前处于在轨状态,支撑全球卫星互联网服务网络的覆盖能力。

基本信息
目录编号:
68394
目录名称:
STARLINK-37157
国际标识:
2026-063Q
轨道中心:
EARTH
卫星名称:
星链-37157
卫星全名:
星链-37157(STARLINK-37157)
卫星状态:
在轨 (已飞行163 天)
发射日期:
2026-03-26 UTC
国别 :
美国 (US)
星等 :
--
轨道信息
数据来源 国际轨道数据 AOE轨道数据
星历时间 2026-09-04T23:25:15+0800
22小时前
查看轨道信息
2026-08-30T04:00:00+0800
6天前
查看轨道信息
半长轴 6843.666km 6843.766km
偏心率 0.0001021 0.0001548
轨道倾角 97.284° 97.290°
近地点辐角 91.722° 79.553°
升交点赤经 28.809° 23.081°
平近点角 268.414° 272.320°
近地点 464.83km 464.569km
远地点 466.228km 466.689km
周期 93.906分钟 93.908分钟
每日圈数 15.334501 15.334162
详细信息
固有亮度:
5
最大亮度:
2.5
卫星平台:
Starlink V1.0
覆盖范围:
全球
运营商:
太空探索技术公司
运营商所在国:
美国
制造商(研发单位):
太空探索技术公司
制造商所在国:
美国
使用方式:
暂无
卫星简介
Starlink 计划是 SpaceX 推出的全球卫星互联网项目,通过发射低轨道卫星,为全球尤其是偏远地区提供高速、低延迟的互联网服务。自 2019 年起,Starlink 已部署数千颗卫星,旨在缩小全球数字鸿沟,推动互联网普及。该项目还为军事、航空等行业提供通信支持,带来广泛经济效益。
2D轨道图
3D轨道图
轨道高度分析图
轨道倾角分析图
轨道综合分析图
查看轨道综合分析图
交会数据列表
事件ID 空间交会对象 最接近时刻(TCA) 交会距离 交会风险概率(CRP) 交会风险指数(CRI) 操作
CDM_260906-144606-580506-839421
2026-09-06T
14:46:11+0000
0.232 km
中距离
5.870774E-4 高风险 0.9
CDM_260906-122506-580506-839421
2026-09-06T
12:25:14+0000
0.953 km
远距离
2.316454E-5 中风险 0.62
CDM_260901-123906-189506-839421
OBJECT B (61895)
2026-09-01T
12:39:25+0000
1.829 km
极远距离
2.452125E-6 低风险 0.43
CDM_260906-114104-742306-839424
OBJECT L (47423)
2026-09-06T
11:41:49+0000
2.438 km
极远距离
1.56388E-6 低风险 0.39
CDM_260901-061106-491006-839421
2026-09-01T
06:11:00+0000
2.853 km
极远距离
1.376067E-6 低风险 0.38
CDM_260905-224805-228306-839422
2026-09-05T
22:48:47+0000
2.505 km
极远距离
1.032105E-6 低风险 0.35